Home   Weather   Buenaventura   Past weeks

Flag for Colombia Past Weather in Buenaventura, Colombia — Yesterday and Last 2 Weeks

Now
75 °F

Passing clouds.


Feels Like: 77 °F
Forecast: 75 / 85 °F
Wind: 7 mph from Northwest

Location: Cali / Alfonso Bonillaaragon

Current Time: Nov 24, 2017 at 7:22:21 pm

Latest Report: Nov 24, 2017 at 7:00 pm


Visibility: N/A

Pressure: 29.96 "Hg

Humidity: 74%

Dew Point: 66 °F

Location of BuenaventuraLocation

Past Weather in Buenaventura — Graph

°F

Buenaventura Temperature Yesterday

Maximum temperature yesterday: 86 °F (at 2:00 pm)
Minimum temperature yesterday: 68 °F (at 6:00 am)
Average temperature yesterday: 74 °F

High & Low Weather Summary for the Past Weeks

 TemperatureHumidityPressure
High88 °F (Nov 12, 1:00 pm)100% (Nov 9, 11:00 pm)30.10 "Hg (Nov 9, 11:00 pm)
Low66 °F (Nov 10, 4:00 am)51% (Nov 18, 4:00 pm)29.78 "Hg (Nov 11, 4:00 pm)
Average74 °F84%29.96 "Hg
* Reported Nov 9 6:00 pm — Nov 24 6:00 pm, Buenaventura. Weather by CustomWeather, © 2017

Note: Actual official high and low records may vary slightly from our data, if they occured in-between our weather recording intervals... More about our weather records

Advertising

Buenaventura Weather History for the Previous 24 Hours

Scroll right to see more
 ConditionsComfort  
Time TempWeatherWind HumidityBarometerVisibility
6:00 pm
Fri, Nov 24
77 °FPassing clouds.6 mph69%29.92 "HgN/A
5:00 pm79 °FScattered showers. Partly sunny.6 mph65%29.91 "HgN/A
4:00 pm79 °FScattered showers. Broken clouds.12 mph65%29.91 "HgN/A
3:00 pm77 °FScattered showers. Broken clouds.12 mph69%29.92 "HgN/A
2:00 pm79 °FScattered showers. Broken clouds.14 mph61%29.94 "HgN/A
1:00 pm82 °FScattered showers. Scattered clouds.5 mph62%29.96 "HgN/A
12:00 pm84 °FScattered clouds.2 mph58%29.99 "Hg6 mi
11:00 am79 °FBroken clouds.2 mph70%30.03 "HgN/A
10:00 am75 °FBroken clouds.5 mph89%30.05 "Hg3 mi
9:00 am73 °FFog.2 mph94%30.06 "Hg2 mi
8:00 am70 °FFog.2 mph94%30.06 "Hg2 mi
7:00 am68 °FFog.2 mph100%30.03 "Hg1 mi
6:35 am66 °FFog.3 mph100%30.02 "Hg1 mi
6:00 am66 °FFog.2 mph100%30.00 "Hg2 mi
5:30 am66 °FFog.3 mph100%29.99 "Hg3 mi
5:00 am68 °FFog.No wind100%29.99 "Hg3 mi
4:00 am68 °FFog.No wind100%29.97 "Hg4 mi
3:00 am68 °FFog.No wind100%29.97 "HgN/A
2:00 am68 °FFog.2 mph100%29.99 "Hg5 mi
1:00 am68 °FPartly cloudy.2 mph100%30.01 "HgN/A
12:00 am68 °FPassing clouds.2 mph100%30.03 "HgN/A
11:00 pm
Thu, Nov 23
68 °FThunderstorms. Partly cloudy.1 mph100%30.04 "HgN/A
10:00 pm68 °FPartly cloudy.7 mph100%30.04 "Hg5 mi
9:00 pm70 °FPartly cloudy.9 mph100%30.03 "HgN/A
8:00 pm70 °FPartly cloudy.7 mph100%30.00 "HgN/A
7:00 pm72 °FPartly cloudy.8 mph94%29.96 "HgN/A
Weather by CustomWeather, © 2017

See weather overview